Content
SEND FEEDBACK

Daily
Averages
Monthly
Summary
United States of America

POPLAR BLUFF, MISSOURI


Home > North America > United States > Missouri
Elevation: 330 feet     Latitude: 36 46N     Longitude: 090 19W

WEATHER
 
SELECT A DAY
Number of Records: 207,799;   Date Range: 1/1/95 - 8/28/14
 
SHARE

PRINT THIS DATA

[ ← Previous Day ]
WEATHER ALMANAC - JANUARY 6, 2013
[ Next Day → ]
[ °C ]   °F
Weather ElementAverageHighLow
Temperature36.2 °F46 °F (1:53 pm)26.1 °F (10:53 pm)
Dewpoint26.7 °F32 °F (1:53 am)21.9 °F (10:53 pm)
Humidity71 %92 % (4:53 am)46 % (2:53 pm)
Barometer30.29 in30.42 in (11:53 pm)30.18 in (3:53 am)
Wind Speed5.3 mph13.8 mph (9:53 am)
Wind Gust18.4 mph (12:53 pm)
Weather ElementAverage
Visibility9 mi
Wind DirectionSSW (187.6 °)

Weather ElementTotal
Precipitation---
Heating Degree Days29 (Base 65)
Averaged from 21 records on January 6, 2013
WEATHER CONDITIONS BREAKOUT
WIND DIRECTION BREAKOUT
WEATHER BY HOUR - JANUARY 6, 2013
[ °C ]   °F
Local TimeTemperatureDewpointHumidityBarometerVisibilityWind DirectionWind SpeedGust SpeedPrecipitationEventsConditions
1:53 AM35.1 °F32.0 °F89 %30.21 in6.0 miSSW (210°)4.6 mphClear
3:53 AM34.0 °F30.9 °F89 %30.18 in4.0 miSSW (200°)6.9 mphClear
4:53 AM32.0 °F30.0 °F92 %30.18 in5.0 miCalmClear
5:53 AM30.9 °F28.0 °F89 %30.19 in8.0 miSSW (200°)5.8 mphClear
6:53 AM30.9 °F28.0 °F89 %30.21 in8.0 miSW (230°)3.5 mphClear
7:53 AM33.1 °F28.9 °F85 %30.24 in9.0 miWSW (250°)3.5 mphClear
8:53 AM37.9 °F30.9 °F76 %30.25 in10.0 miWest (280°)6.9 mphClear
9:53 AM39.9 °F28.9 °F65 %30.26 in10.0 miNNW (330°)13.8 mphClear
10:53 AM42.1 °F28.0 °F58 %30.27 in10.0 miWNW (300°)13.8 mphClear
11:53 AM44.1 °F28.0 °F53 %30.26 in10.0 miNW (320°)10.4 mphClear
12:53 PM44.1 °F27.0 °F51 %30.26 in10.0 miWNW (290°)9.2 mph18.4 mphClear
1:53 PM46.0 °F27.0 °F47 %30.28 in10.0 miWNW (290°)10.4 mphClear
2:53 PM46.0 °F26.1 °F46 %30.30 in10.0 miNNW (340°)10.4 mphClear
3:53 PM45.0 °F25.0 °F46 %30.32 in10.0 miNorth (350°)8.1 mphClear
4:53 PM39.9 °F24.1 °F53 %30.34 in10.0 miNorth (350°)4.6 mphClear
5:53 PM36.0 °F24.1 °F62 %30.36 in10.0 miCalmClear
6:53 PM33.1 °F23.0 °F66 %30.38 in10.0 miCalmClear
7:53 PM30.0 °F25.0 °F82 %30.39 in10.0 miCalmClear
9:53 PM27.0 °F23.0 °F85 %30.40 in9.0 miCalmClear
10:53 PM26.1 °F21.9 °F84 %30.41 in10.0 miCalmClear
11:53 PM26.1 °F21.9 °F84 %30.42 in10.0 miCalmClear
Hourly data recorded from KPOF, located miles away from Poplar Bluff, Missouri







STORIES FROM OUR PARTNERS